Location: Albany
(35.0170°S, 117.8920°E)
Time: 23:21:58
(UTC+08:00)

S-56A Canister/Altair - Pass Details

Date: 23 June 2021
Orbit: 632 x 2501 km, 38.9° (Epoch: 24 July)

Event Time Altitude Azimuth Distance (km) Brightness Sun altitude
Rises 17:39:06 0° 266° (W) 6,001 13.3 -7.2°
Reaches altitude 10° 17:42:54 10° 264° (W) 5,097 12.8 -7.9°
Maximum altitude 17:58:16 76° 178° (S) 2,495 10.0 -10.8°
Enters shadow 18:10:45 13° 92° (E) 4,292 10.7 -13.2°
